Weather History for Dublin, Ireland

Change the Weather History Date:

Monday, September 16, 2013

  Actual Average Record
Temperature  
Mean Temperature 50 °F -  
Max Temperature 55 °F 59 °F 75 °F (2003)
Min Temperature 44 °F 47 °F 39 °F (2006)
Degree Days  
Heating Degree Days 16    
Moisture  
Dew Point 40 °F    
Average Humidity 73    
Maximum Humidity 87    
Minimum Humidity 47    
Precipitation  
Precipitation 0.01 in 0.09 in - ()
Sea Level Pressure  
Sea Level Pressure 29.58 in    
Wind  
Wind Speed 21 mph ()    
Max Wind Speed 31 mph    
Max Gust Speed 46 mph    
Visibility 7.0 miles    
Events Rain    
Averages and records for this station are not official NWS values.
T = Trace of Precipitation, MM = Missing Value Source: Averaged Metar Reports

Daily Weather History Graph

Daily Weather History Graph

Search for Another Location

Airport:

Trip Planner

Search our weather history database for the weather conditions in past years. The results will help you decide how hot, cold, wet, or windy it might be!

Date:

Astronomy

Sep. 16, 2013 Rise Set
Actual Time 7:00 AM IST 7:38 PM IST
Civil Twilight 6:25 AM IST 8:13 PM IST
Nautical Twilight 5:43 AM IST 8:55 PM IST
Astronomical Twilight 4:58 AM IST 9:39 PM IST
Moon 5:55 PM IST (9/16) 3:07 AM IST (9/16)
Length of Visible Light 13h 47m
Length of Day
12h 37m
Waxing Gibbous, 88% of the Moon is Illuminated
Sep 16
Waxing Gibbous
Sep 19
Full
Sep 27
Last Quarter
Oct 5
New
Oct 12
First Quarter

Hourly Weather History & Observations

Time (IST) Temp. Windchill Dew Point Humidity Pressure Visibility Wind Dir Wind Speed Gust Speed Precip Events Conditions
12:00 AM 46.4 °F 38.1 °F 39.2 °F 76% 29.56 in 6.2 mi West 24.2 mph - N/A   Scattered Clouds
12:30 AM 46.4 °F 38.5 °F 39.2 °F 76% 29.56 in 6.2 mi West 21.9 mph - N/A   Scattered Clouds
1:00 AM 46 °F - 40 °F 73% 29.59 in 19 mi West 20.1 mph - -   Partly Cloudy
1:00 AM 44.6 °F 36.9 °F 41.0 °F 87% 29.56 in 6.2 mi West 18.4 mph - N/A   Scattered Clouds
1:30 AM 44.6 °F 36.1 °F 39.2 °F 81% 29.56 in 6.2 mi West 21.9 mph - N/A   Scattered Clouds
2:00 AM 44.6 °F 36.1 °F 39.2 °F 81% 29.56 in 6.2 mi West 21.9 mph - N/A   Scattered Clouds
2:30 AM 44.6 °F 35.9 °F 39.2 °F 81% 29.56 in 6.2 mi West 23.0 mph - N/A   Scattered Clouds
3:00 AM 46.4 °F 38.3 °F 39.2 °F 76% 29.56 in 6.2 mi West 23.0 mph - N/A   Scattered Clouds
3:30 AM 46.4 °F 37.9 °F 39.2 °F 76% 29.56 in 6.2 mi West 25.3 mph - N/A   Scattered Clouds
4:00 AM 44.6 °F 35.9 °F 39.2 °F 81% 29.53 in 6.2 mi West 23.0 mph - N/A Rain Light Rain Showers
4:30 AM 44.6 °F 35.5 °F 39.2 °F 81% 29.53 in 6.2 mi West 25.3 mph - N/A   Partly Cloudy
5:00 AM 44.6 °F 36.4 °F 41.0 °F 87% 29.53 in 6.2 mi West 20.7 mph 32.2 mph N/A   Partly Cloudy
5:30 AM 44.6 °F 36.1 °F 41.0 °F 87% 29.53 in 6.2 mi West 21.9 mph - N/A   Partly Cloudy
6:00 AM 44.6 °F 36.1 °F 41.0 °F 87% 29.56 in 6.2 mi West 21.9 mph - N/A Rain Light Rain Showers
6:30 AM 44.6 °F 36.4 °F 39.2 °F 81% 29.56 in 6.2 mi West 20.7 mph - N/A   Scattered Clouds
7:00 AM 44 °F - 40 °F 80% 29.59 in 12 mi West 17.9 mph - - Rain Light Rain Showers
7:00 AM 44.6 °F 36.9 °F 39.2 °F 81% 29.56 in 6.2 mi West 18.4 mph - N/A   Mostly Cloudy
7:30 AM 44.6 °F 36.9 °F 39.2 °F 81% 29.56 in 6.2 mi West 18.4 mph - N/A   Mostly Cloudy
8:00 AM 44.6 °F 36.4 °F 39.2 °F 81% 29.56 in 6.2 mi West 20.7 mph - N/A   Mostly Cloudy
8:30 AM 44.6 °F 36.9 °F 41.0 °F 87% 29.59 in 6.2 mi WSW 18.4 mph 29.9 mph N/A   Scattered Clouds
9:00 AM 46.4 °F 38.1 °F 41.0 °F 81% 29.56 in 6.2 mi West 24.2 mph - N/A   Scattered Clouds
9:30 AM 48.2 °F - 39.2 °F 71% 29.56 in 6.2 mi West 24.2 mph - N/A   Partly Cloudy
10:00 AM 48.2 °F - 41.0 °F 76% 29.56 in 6.2 mi West 25.3 mph - N/A   Partly Cloudy
10:30 AM 50.0 °F - 39.2 °F 66% 29.56 in 6.2 mi West 25.3 mph 38.0 mph N/A   Partly Cloudy
11:00 AM 51.8 °F - 41.0 °F 67% 29.56 in 6.2 mi West 27.6 mph - N/A   Scattered Clouds
11:30 AM 51.8 °F - 39.2 °F 62% 29.56 in 6.2 mi West 27.6 mph 39.1 mph N/A   Mostly Cloudy
12:00 PM 53.6 °F - 39.2 °F 58% 29.56 in 6.2 mi West 26.5 mph 41.4 mph N/A   Mostly Cloudy
12:30 PM 50.0 °F - 42.8 °F 76% 29.59 in 6.2 mi West 31.1 mph 46.0 mph N/A Rain Light Rain Showers
1:00 PM 54 °F - 40 °F 47% 29.60 in 16 mi West 29.1 mph - - Rain Light Rain Showers
1:00 PM 53.6 °F - 39.2 °F 58% 29.56 in 6.2 mi West 27.6 mph 40.3 mph N/A   Scattered Clouds
1:30 PM 53.6 °F - 39.2 °F 58% 29.59 in 6.2 mi West 27.6 mph 39.1 mph N/A   Scattered Clouds
2:00 PM 53.6 °F - 41.0 °F 62% 29.59 in 6.2 mi WNW 29.9 mph 41.4 mph N/A   Mostly Cloudy
2:30 PM 55.4 °F - 39.2 °F 54% 29.59 in 6.2 mi West 28.8 mph 42.6 mph N/A   Mostly Cloudy
3:00 PM 53.6 °F - 41.0 °F 62% 29.59 in 6.2 mi West 25.3 mph - N/A   Scattered Clouds
3:30 PM 55.4 °F - 41.0 °F 58% 29.59 in 6.2 mi West 26.5 mph - N/A   Scattered Clouds
4:00 PM 55.4 °F - 41.0 °F 58% 29.59 in 6.2 mi West 26.5 mph 38.0 mph N/A   Mostly Cloudy
4:30 PM 50.0 °F - 42.8 °F 76% 29.62 in 5.6 mi WNW 18.4 mph 32.2 mph N/A Rain Light Rain Showers
5:00 PM 51.8 °F - 41.0 °F 67% 29.59 in 6.2 mi WNW 26.5 mph - N/A   Scattered Clouds
5:30 PM 51.8 °F - 41.0 °F 67% 29.62 in 6.2 mi WNW 26.5 mph - N/A Rain Light Rain Showers
6:00 PM 50.0 °F - 41.0 °F 71% 29.62 in 6.2 mi West 19.6 mph 32.2 mph N/A   Scattered Clouds
6:30 PM 50.0 °F - 41.0 °F 71% 29.62 in 6.2 mi West 18.4 mph - N/A   Scattered Clouds
7:00 PM 50 °F - 41 °F 62% 29.64 in 19 mi West 20.1 mph - -   Mostly Cloudy
7:00 PM 50.0 °F - 41.0 °F 71% 29.62 in 6.2 mi West 21.9 mph - N/A   Mostly Cloudy
7:30 PM 50.0 °F - 41.0 °F 71% 29.62 in 6.2 mi West 18.4 mph - N/A   Mostly Cloudy
8:00 PM 48.2 °F - 39.2 °F 71% 29.62 in 6.2 mi West 21.9 mph - N/A   Mostly Cloudy
8:30 PM 48.2 °F - 39.2 °F 71% 29.62 in 6.2 mi West 21.9 mph - N/A   Mostly Cloudy
9:00 PM 48.2 °F - 39.2 °F 71% 29.62 in 6.2 mi West 20.7 mph - N/A   Mostly Cloudy
9:30 PM 48.2 °F - 39.2 °F 71% 29.62 in 6.2 mi West 19.6 mph - N/A   Mostly Cloudy
10:30 PM 48.2 °F - 41.0 °F 76% 29.62 in 6.2 mi West 17.3 mph - N/A   Mostly Cloudy
11:00 PM 48.2 °F - 41.0 °F 76% 29.62 in 6.2 mi West 17.3 mph - N/A   Mostly Cloudy
11:30 PM 48.2 °F - 41.0 °F 76% 29.62 in 6.2 mi West 17.3 mph - N/A   Mostly Cloudy